AWQ645 WATO-WADD

Flight info

Callsign AWQ645
Flight time N/A
Altitude 30000
Route TOGEM W42 PEBGU
Aircraft A320/M-SDE3FGHIRWY/LB1

Departure

Time N/A
Airport Komodo Airport (WATO)

Arrival

Time 2026-05-07 09:41
Airport Denpasar I Gusti Ngurah Rai International Airport (WADD)
Time Latitude Longitude Altitude Speed Heading
2026-05-07 09:20 -8.93165 115.86030 18032 ft 331 kts 250°
2026-05-07 09:21 -8.93966 115.83844 17949 ft 331 kts 251°
2026-05-07 09:21 -8.94528 115.81598 17843 ft 330 kts 263°
2026-05-07 09:21 -8.94675 115.79284 17575 ft 329 kts 268°
2026-05-07 09:21 -8.94776 115.77008 17328 ft 328 kts 267°
2026-05-07 09:22 -8.94884 115.74709 17110 ft 327 kts 267°
2026-05-07 09:22 -8.94994 115.72419 16924 ft 326 kts 267°
2026-05-07 09:22 -8.95103 115.70138 16868 ft 325 kts 267°
2026-05-07 09:22 -8.95212 115.67844 16882 ft 330 kts 267°
2026-05-07 09:23 -8.95325 115.65450 16882 ft 352 kts 267°
2026-05-07 09:23 -8.95443 115.62899 16879 ft 372 kts 267°
2026-05-07 09:23 -8.95568 115.60233 16874 ft 385 kts 267°
2026-05-07 09:23 -8.95698 115.57514 16877 ft 388 kts 267°
2026-05-07 09:24 -8.95827 115.54783 16894 ft 389 kts 267°
2026-05-07 09:24 -8.95957 115.52049 16863 ft 389 kts 267°
2026-05-07 09:24 -8.96085 115.49313 16866 ft 392 kts 267°
2026-05-07 09:24 -8.96217 115.46497 16873 ft 409 kts 267°
2026-05-07 09:25 -8.96355 115.43570 16868 ft 425 kts 267°
2026-05-07 09:25 -8.96497 115.40539 16776 ft 437 kts 267°
2026-05-07 09:25 -8.96641 115.37461 16521 ft 439 kts 267°
2026-05-07 09:25 -8.96780 115.34382 16269 ft 438 kts 267°
2026-05-07 09:26 -8.96918 115.31314 16020 ft 436 kts 267°
2026-05-07 09:26 -8.97055 115.28255 15774 ft 435 kts 267°
2026-05-07 09:26 -8.97192 115.25204 15522 ft 434 kts 267°
2026-05-07 09:26 -8.97364 115.22162 15272 ft 432 kts 266°
2026-05-07 09:27 -8.97598 115.19135 15017 ft 431 kts 265°
2026-05-07 09:27 -8.97867 115.16120 14768 ft 430 kts 264°
2026-05-07 09:27 -8.98422 115.10123 14270 ft 427 kts 265°
2026-05-07 09:28 -8.98682 115.07136 14021 ft 426 kts 265°
2026-05-07 09:28 -8.98931 115.04153 13765 ft 425 kts 265°
2026-05-07 09:28 -8.99174 115.01177 13520 ft 424 kts 265°
2026-05-07 09:28 -8.99415 114.98209 13266 ft 423 kts 265°
2026-05-07 09:29 -8.99656 114.95248 13014 ft 421 kts 265°
2026-05-07 09:29 -8.99897 114.92298 12758 ft 421 kts 265°
2026-05-07 09:29 -9.00138 114.89354 12513 ft 419 kts 265°
2026-05-07 09:29 -9.00378 114.86420 12266 ft 418 kts 265°
2026-05-07 09:30 -9.00587 114.83503 12008 ft 413 kts 269°
2026-05-07 09:30 -9.00138 114.80718 11837 ft 394 kts 291°
2026-05-07 09:30 -8.98769 114.78424 11863 ft 372 kts 313°
2026-05-07 09:30 -8.97516 114.77294 11868 ft 359 kts 324°
2026-05-07 09:31 -8.95512 114.75903 11865 ft 341 kts 326°
2026-05-07 09:31 -8.93574 114.74594 11680 ft 331 kts 327°
2026-05-07 09:31 -8.91675 114.73326 11433 ft 323 kts 327°
2026-05-07 09:31 -8.89818 114.72089 11178 ft 317 kts 328°
2026-05-07 09:32 -8.87817 114.71254 10886 ft 310 kts 351°
2026-05-07 09:32 -8.85696 114.71332 10543 ft 304 kts 17°
2026-05-07 09:32 -8.83836 114.72274 10190 ft 299 kts 41°
2026-05-07 09:32 -8.82536 114.73874 9786 ft 295 kts 64°
2026-05-07 09:33 -8.81729 114.75776 9373 ft 294 kts 68°
2026-05-07 09:33 -8.80953 114.77688 8961 ft 294 kts 69°
2026-05-07 09:33 -8.80177 114.79596 8514 ft 293 kts 69°
2026-05-07 09:33 -8.79411 114.81467 8084 ft 282 kts 69°
2026-05-07 09:34 -8.78676 114.83259 7676 ft 271 kts 69°
2026-05-07 09:34 -8.77973 114.84978 7278 ft 259 kts 69°
2026-05-07 09:34 -8.77299 114.86624 6878 ft 249 kts 69°
2026-05-07 09:34 -8.76649 114.88209 6492 ft 239 kts 69°
2026-05-07 09:35 -8.76023 114.89736 6139 ft 231 kts 69°
2026-05-07 09:35 -8.75525 114.91237 5775 ft 221 kts 83°
2026-05-07 09:35 -8.75480 114.92756 5422 ft 213 kts 92°
2026-05-07 09:35 -8.75495 114.94228 5101 ft 206 kts 91°
2026-05-07 09:36 -8.75508 114.95644 4832 ft 196 kts 91°
2026-05-07 09:36 -8.75516 114.96997 4506 ft 189 kts 91°
2026-05-07 09:36 -8.75524 114.98317 4201 ft 187 kts 91°
2026-05-07 09:36 -8.75530 114.99622 3886 ft 185 kts 90°
2026-05-07 09:37 -8.75496 115.00917 3577 ft 183 kts 89°
2026-05-07 09:37 -8.75443 115.02198 3277 ft 182 kts 89°
2026-05-07 09:37 -8.75387 115.03468 2981 ft 180 kts 89°
2026-05-07 09:37 -8.75334 115.04727 2673 ft 178 kts 89°
2026-05-07 09:38 -8.75283 115.05950 2384 ft 170 kts 90°
2026-05-07 09:38 -8.75235 115.07122 2093 ft 163 kts 90°
2026-05-07 09:38 -8.75189 115.08245 1809 ft 157 kts 90°
2026-05-07 09:38 -8.75147 115.09305 1567 ft 147 kts 91°
2026-05-07 09:39 -8.75106 115.10327 1315 ft 144 kts 91°
2026-05-07 09:39 -8.75064 115.11315 1072 ft 142 kts 91°
2026-05-07 09:39 -8.75026 115.12310 827 ft 142 kts 92°
2026-05-07 09:39 -8.74989 115.13308 582 ft 142 kts 91°
2026-05-07 09:40 -8.74944 115.14304 333 ft 142 kts 90°
2026-05-07 09:40 -8.74895 115.15305 118 ft 143 kts 90°
2026-05-07 09:40 -8.74862 115.16288 30 ft 132 kts 90°
2026-05-07 09:40 -8.74837 115.17060 28 ft 86 kts 88°
2026-05-07 09:41 -8.74817 115.17492 29 ft 44 kts 87°
2026-05-07 09:41 -8.74808 115.17727 28 ft 19 kts 87°
2026-05-07 09:41 -8.74753 115.17792 29 ft 12 kts
2026-05-07 09:41 -8.74684 115.17787 32 ft 8 kts 356°
2026-05-07 09:42 -8.74648 115.17766 32 ft 5 kts 304°
2026-05-07 09:42 -8.74636 115.17712 33 ft 16 kts 270°
2026-05-07 09:42 -8.74643 115.17598 32 ft 16 kts 266°
2026-05-07 09:42 -8.74647 115.17493 32 ft 14 kts 268°
2026-05-07 09:43 -8.74651 115.17393 32 ft 18 kts 268°
2026-05-07 09:43 -8.74657 115.17258 32 ft 20 kts 268°
2026-05-07 09:43 -8.74663 115.17115 32 ft 21 kts 267°
2026-05-07 09:43 -8.74670 115.16962 32 ft 23 kts 268°
2026-05-07 09:44 -8.74676 115.16818 32 ft 18 kts 268°
2026-05-07 09:44 -8.74681 115.16691 32 ft 18 kts 267°
2026-05-07 09:44 -8.74687 115.16568 32 ft 17 kts 267°
2026-05-07 09:44 -8.74691 115.16453 32 ft 15 kts 268°
2026-05-07 09:45 -8.74695 115.16354 33 ft 13 kts 268°
2026-05-07 09:45 -8.74683 115.16283 31 ft 8 kts 327°
2026-05-07 09:45 -8.74632 115.16277 33 ft 7 kts 358°
2026-05-07 09:45 -8.74589 115.16275 33 ft 6 kts 358°
2026-05-07 09:46 -8.74572 115.16275 33 ft 0 kts 358°